This is the latest recevied weather packets stored in our database for station/object PY3MO-11. If no packets are shown the sender has not sent any weather packets the latest 10 day(s).
| Time | Temp. | Humidity | Pressure | Rain* | Wind** | Luminosity | Snow |
|---|---|---|---|---|---|---|---|
| 1778089437 | 28.89° C | 45% | 1017.2 hPa | 0 mm | - | - | - |
| 1778089137 | 28.33° C | 44% | 1017.3 hPa | 0 mm | - | - | - |
| 1778088837 | 28.89° C | 45% | 1017.2 hPa | 0 mm | - | - | - |
| 1778088539 | 28.89° C | 44% | 1017.4 hPa | 0 mm | - | - | - |
| 1778088238 | 28.89° C | 45% | 1017.4 hPa | 0 mm | - | - | - |
| 1778087938 | 28.89° C | 43% | 1017.5 hPa | 0 mm | - | - | - |
| 1778087338 | 29.44° C | 44% | 1017.7 hPa | 0 mm | - | - | - |
| 1778087038 | 28.89° C | 44% | 1017.7 hPa | 0 mm | - | - | - |
| 1778086738 | 28.89° C | 44% | 1017.7 hPa | 0 mm | - | - | - |
| 1778086438 | 28.89° C | 45% | 1017.8 hPa | 0 mm | - | - | - |
| 1778086138 | 28.89° C | 45% | 1017.8 hPa | 0 mm | - | - | - |
| 1778085837 | 28.89° C | 45% | 1018 hPa | 0 mm | - | - | - |
| 1778085537 | 28.89° C | 47% | 1017.9 hPa | 0 mm | - | - | - |
| 1778084938 | 28.33° C | 48% | 1018.1 hPa | 0 mm | - | - | - |
| 1778084638 | 28.33° C | 48% | 1018.2 hPa | 0 mm | - | - | - |
| 1778084337 | 28.33° C | 47% | 1018.2 hPa | 0 mm | - | - | - |
| 1778084037 | 28.33° C | 49% | 1018.4 hPa | 0 mm | - | - | - |
| 1778083737 | 27.78° C | 51% | 1018.5 hPa | 0 mm | - | - | - |
| 1778083437 | 27.78° C | 50% | 1018.6 hPa | 0 mm | - | - | - |
| 1778083139 | 28.33° C | 50% | 1018.8 hPa | 0 mm | - | - | - |
| 1778082839 | 27.78° C | 51% | 1018.7 hPa | 0 mm | - | - | - |
| 1778082539 | 27.22° C | 55% | 1019 hPa | 0 mm | - | - | - |
| 1778082238 | 27.78° C | 51% | 1018.9 hPa | 0 mm | - | - | - |
| 1778081938 | 27.78° C | 51% | 1019 hPa | 0 mm | - | - | - |
| 1778081639 | 27.78° C | 51% | 1019.3 hPa | 0 mm | - | - | - |
* Rain latest hour (hover to see other rain measurements)
** Current wind speed in m/s (hover to see current wind gust speed)